Lid_Strength_Index
1 1 1 2 7 7 9 8 6 7 7 5 4 5 6 5 6 10 1 -0 -0 -0 -1 -1 -2 -2 -2 -2 -1 -2 -2 -2 -2 -2 -2 -2 -2 -2 -2 -2 -2 -3 -2 -2 -2 -2 -2 -2 -2
2 3 1 3 8 10 9 7 7 6 5 4 4 4 5 6 3 3 2 -0 -1 -1 -1 -1 -1 -2 -2 -2 -2 -2 -2 -2 -2 -2 -2 -2 -2 -2 -2 -2 -2 -2 -2 -2 -2 -2 -2 -2 -2
3 2 4 6 8 10 9 7 6 5 4 4 5 4 4 5 3 2 0 -0 -1 -1 -1 -1 -1 -2 -2 -2 -2 -2 -2 -2 -2 -2 -2 -2 -2 -2 -2 -2 -2 -3 -2 -2 -2 -2 -2 -2 -2
2 3 3 7 9 7 7 6 5 5 5 4 4 6 3 2 2 1 -0 -1 -0 -1 -1 -1 -1 -2 -2 -2 -2 -2 -2 -2 -2 -2 -2 -2 -2 -2 -2 -2 -2 -2 -2 -2 -2 -2 -2 -2 -2
2 4 7 8 8 7 6 5 5 5 5 5 4 5 5 2 1 0 0 -0 0 -0 -1 -1 -1 -1 -2 -2 -2 -2 -2 -2 -2 -2 -2 -2 -3 -2 -2 -2 -2 -2 -2 -2 -2 -2 -2 -2 -2
5 4 8 10 8 7 6 5 5 5 5 5 5 5 5 1 1 1 -0 -0 -1 -0 -1 -1 0 -1 -1 -2 -2 -2 -1 -2 -2 -2 -2 -2 -2 -2 -2 -2 -3 -2 -2 -2 -2 -2 -2 -2 -2
5 6 8 8 8 8 6 4 5 6 6 6 3 6 4 3 1 0 0 -0 -1 -1 -0 -1 -1 -1 0 -1 -1 -1 -1 -2 -2 -2 -2 -2 -2 -2 -2 -3 -3 -2 -2 -2 -2 -2 -2 -2 -2
5 6 8 7 8 8 5 5 5 5 6 3 3 6 5 3 1 0 0 0 -0 -0 -0 -1 -1 -1 -1 -1 0 -0 -1 -1 -1 -2 -1 -1 -1 -2 -2 -2 -2 -2 -2 -2 -2 -2 -2 -2 -2
5 8 9 8 8 7 5 6 5 5 5 4 3 3 3 2 1 2 1 1 1 1 -0 -1 -0 -1 -1 -1 -0 0 1 0 0 -0 -0 -0 -1 -1 -1 -1 -2 -2 -2 -2 -2 -2 -2 -1 -1
6 8 7 6 5 6 6 5 6 6 6 5 4 3 2 2 2 3 3 3 2 2 1 -0 -0 -0 -1 -1 -1 -1 -1 -1 -1 -1 -1 -1 -1 -1 -1 -0 -1 -1 -1 -1 -2 -1 -1 -1 -1
6 8 7 7 6 5 6 6 5 6 6 5 5 4 3 3 3 3 3 2 2 1 1 0 -0 -1 -1 -1 -1 -1 -1 -1 -1 -1 -2 -2 -1 -1 -1 -1 -1 -1 0 -1 -1 -0 -1 -1 -1
8 7 7 7 7 7 6 5 6 5 5 4 4 3 3 3 3 3 3 2 2 2 1 0 -0 -0 -1 -1 -1 -1 -1 -1 -1 -1 -1 -1 -1 -1 -1 -1 -1 -1 -1 -1 -1 -1 -1 -1 -1
8 7 8 7 7 7 6 7 6 6 5 5 5 3 3 3 3 2 2 1 1 2 1 0 -0 -0 -0 -0 -1 -0 -1 -1 -1 -1 -1 -1 -1 -1 -1 -1 -1 -1 -0 -0 -0 -0 -0 -0 -0
7 7 8 7 8 8 7 7 7 6 5 5 6 4 3 3 3 2 2 2 2 1 1 0 0 -0 -0 -0 -0 -0 -1 -1 -1 -1 -1 -1 -1 -1 -1 -1 -1 -0 0 0 0 0 0 0 0
8 9 8 8 8 8 7 9 9 6 7 7 7 6 4 3 2 3 2 2 1 1 1 1 0 -0 -0 -0 -0 -0 -1 -1 -1 -1 -1 -1 -0 -0 -1 -1 -1 0 0 0 0 0 0 1 1
9 9 11 9 8 8 8 10 6 6 7 7 6 6 6 4 2 2 1 1 1 1 1 0 0 0 -0 -0 -0 -0 -1 -0 -1 -1 -1 -0 -0 0 0 -0 -0 -0 0 1 1 1 1 1 2
10 12 11 11 8 8 9 10 7 7 7 7 6 6 6 6 4 2 1 1 1 1 1 1 0 1 1 -0 0 -0 -1 -0 0 -1 -1 -0 0 1 1 0 -0 1 1 1 1 1 1 2 2
12 12 11 11 9 9 9 9 8 7 7 7 6 6 6 6 6 5 4 1 1 1 0 0 0 1 1 0 -0 -0 -0 -0 -0 -0 -1 -1 -1 1 1 1 1 1 2 2 2 2 2 2 3
9 10 11 10 9 9 10 10 8 7 7 7 7 6 6 5 4 4 4 4 3 1 1 1 1 1 0 1 1 1 1 0 0 1 -1 -1 -0 0 0 1 2 2 2 2 2 3 4 4 3
10 11 11 11 10 10 10 10 8 7 7 7 7 6 6 5 5 5 5 5 4 4 2 1 1 1 1 1 1 1 1 0 -0 0 0 -0 0 1 1 2 3 4 4 5 5 6 7 6 7
11 12 12 12 10 10 11 11 10 8 8 7 7 7 6 6 6 6 5 4 4 5 4 3 1 0 0 0 0 1 2 2 1 1 1 1 0 1 2 2 2 4 5 6 7 7 6 7 6
13 10 11 12 12 14 11 15 11 9 10 9 8 8 7 6 6 6 5 4 3 3 3 4 3 0 0 0 1 1 2 3 1 2 1 0 1 1 2 2 3 3 5 6 7 7 7 6 8
11 10 11 12 12 13 13 15 12 11 11 9 8 8 7 6 6 6 6 5 3 2 2 4 4 2 0 0 1 1 2 1 1 1 1 1 1 1 2 2 2 3 5 5 6 7 7 7 7
10 11 11 11 12 16 13 13 14 12 10 10 9 8 7 7 6 6 6 5 4 2 1 3 5 2 0 0 1 1 2 2 2 1 1 1 1 1 1 2 3 3 4 5 5 6 7 7 8
10 11 15 16 16 17 14 14 13 10 11 9 9 7 7 7 6 6 6 5 5 4 2 2 2 2 1 1 1 1 1 1 2 1 1 1 2 2 2 2 3 3 3 3 4 5 6 7 7
11 11 14 18 17 16 15 16 13 10 10 10 8 7 7 7 6 6 6 6 5 5 4 3 2 2 1 1 1 1 2 1 1 1 1 1 1 2 2 2 2 2 2 3 4 4 6 7 8
11 13 10 14 16 15 14 12 10 10 10 10 8 8 7 6 6 6 6 6 6 5 5 4 4 3 2 2 2 1 2 2 3 2 3 3 4 5 4 4 4 4 4 4 4 5 6 7 7
10 9 13 12 18 17 15 13 13 11 10 9 8 8 7 7 7 7 7 7 6 5 5 5 4 5 4 3 3 2 2 3 3 4 4 4 4 5 6 5 5 6 5 6 5 5 6 8 7
12 12 11 11 12 15 16 14 10 9 9 9 8 7 7 8 7 7 7 7 7 6 6 6 6 5 5 4 4 4 4 4 3 3 3 3 3 4 5 5 5 6 6 7 7 7 7 8 7
9 11 11 13 15 13 13 14 10 10 8 7 7 7 7 6 7 7 7 7 7 7 7 7 7 7 6 6 6 6 5 5 4 4 4 5 5 5 6 6 6 6 6 6 7 7 7 8 8